Location: Abad�a
(40.2594°N, 5.9773°W)
Time: 15:46:46
(UTC+00:00)

Daily predictions for brighter satellites

Satellite Brightness Start Highest point End
(mag) Time Altitude Azimuth Time Altitude Azimuth Time Altitude Azimuth
NOSS 3-1 (A) 4.5 20:17:48 10° NW 20:25:35 72° WSW 20:34:21 10° SSE
Cosmos 2285 Rocket 4.3 20:19:37 10° NNW 20:25:55 72° WSW 20:32:09 10° S
Cosmos 1356 Rocket 3.6 20:22:37 10° NNW 20:26:55 81° W 20:31:05 10° S
Cosmos 1602 Rocket 4.0 20:23:08 10° SSE 20:27:16 42° E 20:31:27 10° NNE
CZ-2C R/B 3.8 20:23:36 10° NNE 20:28:22 67° ESE 20:33:06 10° S
Cosmos 372 Rocket 4.4 20:26:11 10° NNW 20:31:23 66° WSW 20:36:34 10° S
Atlas Centaur 2 3.2 20:26:58 10° SW 20:31:45 30° SSE 20:37:35 10° ESE
Cosmos 2263 Rocket 2.4 20:27:27 10° NNW 20:33:00 73° WSW 20:38:32 10° SSE
Cosmos 2219 Rocket 3.8 20:31:58 10° SE 20:34:58 15° E 20:37:58 10° ENE
Cosmos 2360 Rocket 2.5 20:31:02 10° S 20:36:25 47° ESE 20:41:49 10° NE
Cosmos 1626 4.1 20:33:23 10° SW 20:36:43 32° WNW 20:40:04 10° NNW
FALCON 9 R/B 2.3 20:37:46 10° WSW 20:39:38 16° SSW 20:41:09 10° SSE
IRIS 4.1 20:36:02 10° WSW 20:39:50 66° SSE 20:42:25 10° E
Meteor 2-16 Rocket 4.4 20:34:07 10° S 20:40:08 73° E 20:46:12 10° NNE
Cosmos 2333 Rocket 3.5 20:40:33 10° SE 20:44:35 20° E 20:48:40 10° NE
Resurs 01 Rocket 1.7 20:46:10 10° SSE 20:50:33 67° ENE 20:54:56 10° N
Cosmos 1818 3.5 20:46:04 10° SSW 20:51:25 69° ESE 20:56:51 10° NE
SL-16 R/B 3.2 20:49:44 10° SW 20:55:14 52° WNW 21:00:48 10° NNE
Cosmos-2242 4.2 20:52:33 10° NNE 20:56:14 26° ENE 20:59:06 14° SE
CZ-2C R/B 3.4 20:51:15 10° N 20:56:32 55° WNW 21:01:39 10° SSW
ERS-1 Rocket 4.5 20:56:51 11° ESE 21:00:21 22° ENE 21:04:12 10° NNE
GEOS 3 Rocket 3.7 21:01:26 10° NE 21:06:48 63° ESE 21:12:06 10° SSW
ATLAS 5 CENTAUR R/B 1.4 21:04:11 10° SSW 21:08:13 87° ESE 21:12:42 10° NE
Cosmos 2278 Rocket 4.4 21:06:34 10° NNE 21:08:31 12° NE 21:10:29 10° ENE
USA 215 3.4 21:04:06 10° NE 21:10:27 50° SE 21:16:44 10° SSW
USA 245 3.7 21:08:35 19° SE 21:10:27 39° ENE 21:14:06 10° N
Cosmos 1758 Rocket 3.6 21:08:17 10° S 21:12:43 64° E 21:17:10 10° NNE
Cosmos 1844 Rocket 3.0 21:08:53 10° NNW 21:14:19 52° ENE 21:18:16 18° SE
Cosmos 1400 Rocket 3.4 21:11:50 10° N 21:15:34 38° ENE 21:17:42 21° SE
SPOT 5 4.2 21:13:56 16° ESE 21:16:56 27° ENE 21:20:59 10° NNE
Meteor 2-10 Rocket 3.5 21:13:40 10° N 21:18:49 85° W 21:23:40 13° S
Spot 2 Rocket 3.6 21:16:44 17° SSE 21:20:37 65° ENE 21:25:41 10° N
OAO 3 Rocket 3.8 21:16:32 10° WSW 21:21:08 42° S 21:23:58 21° SE
Landsat 7 3.9 21:21:48 19° SSE 21:25:08 65° ENE 21:29:51 10° N
BREEZE M DEB (TANK) 3.9 21:24:05 10° NW 21:26:19 22° NNE 21:27:38 13° ENE
Cosmos 1745 Rocket 4.3 21:23:53 10° SSW 21:30:01 68° W 21:36:16 10° N
SPOT 1/Viking Rocket 3.6 21:31:53 22° SSE 21:35:12 68° ENE 21:40:20 10° N
Cosmos 1953 Rocket 3.6 21:33:11 22° SSE 21:35:51 60° E 21:40:06 10° NNE
Cosmos 1328 3.9 21:37:16 14° SSW 21:40:39 74° W 21:44:37 10° N
Cosmos 2322 Rocket 4.4 21:38:04 10° WSW 21:42:45 27° NW 21:47:29 10° N
OAO 2 Rocket 3.7 21:40:46 10° WSW 21:45:51 47° S 21:48:29 26° ESE
SAR-Lupe-2 3.4 21:42:24 10° NNE 21:46:00 87° ESE 21:47:57 25° SSW
Cosmos 1455 3.4 21:45:25 10° NNW 21:49:02 39° W 21:51:42 16° SSW
Cosmos 1825 Rocket 4.1 21:47:19 11° SSW 21:51:32 58° W 21:55:57 10° N
Cosmos 1703 4.4 21:50:45 10° SSW 21:54:25 41° W 21:58:07 10° N
ATLAS CENTAUR R/B 2.5 21:54:15 10° N 21:57:25 27° NE 21:58:26 23° ENE
Alouette 2 Rocket 3.9 21:57:00 10° NNW 22:00:59 70° W 22:03:55 26° S
COSMOS 2428 2.6 21:57:26 14° SSW 22:02:23 77° ESE 22:08:04 10° NNE
CZ-4B DEB 4.4 22:01:43 50° S 22:02:28 73° WSW 22:05:49 10° NNW
Delta 2 Rocket 4.1 22:02:58 10° WSW 22:05:02 27° SW 22:05:02 27° SW
Cosmos 2322 4.3 22:00:40 10° SW 22:06:18 59° WNW 22:11:58 10° NNE
Cosmos 1844 3.8 22:02:57 10° NNW 22:08:42 71° WSW 22:11:25 32° S
Cosmos 1869 4.3 22:05:27 10° NNE 22:09:03 31° ENE 22:09:22 31° E
NOSS 0 Rocket 4.2 22:07:31 32° SSE 22:09:50 46° ESE 22:15:40 10° NE
CARTOSAT-1 3.6 22:10:04 40° S 22:11:33 78° WSW 22:15:54 10° NNW
Terra 1.9 22:10:34 41° SE 22:12:06 65° ENE 22:16:49 10° N
Meteor 1-27 4.2 22:09:53 10° N 22:15:39 79° E 22:18:05 37° SSE
Cosmos 2237 Rocket 2.7 22:14:58 35° SE 22:15:52 37° ESE 22:21:04 10° NE
BREEZE-M DEB (TANK) 3.6 22:14:32 10° WNW 22:17:50 46° SW 22:18:37 40° S
Cosmos 2344 4.0 22:16:02 31° SE 22:18:07 36° ESE 22:24:54 10° NE
Cosmos 2219 Rocket 2.4 22:12:39 10° SSW 22:18:12 71° WNW 22:23:49 10° NNE
Cosmos 1538 Rocket 4.2 22:15:17 17° SSW 22:19:31 74° WNW 22:24:52 10° NNE
Atlas Centaur 2 3.2 22:14:46 10° WSW 22:20:23 34° S 22:21:21 33° SSE
Cosmos 2360 Rocket 4.4 22:16:00 10° WSW 22:20:38 25° NW 22:25:17 10° N
NOSS 3-3 (A) 4.1 22:15:04 10° SW 22:20:48 72° NW 22:27:17 10° NNE
NOSS 3-3 (C) 4.1 22:15:09 10° SW 22:20:55 73° NW 22:27:24 10° NNE
BREEZE-M R/B 4.1 22:10:36 10° WNW 22:21:11 81° NNE 22:23:37 35° ESE
DELTA 2 R/B (1) 3.5 22:20:44 10° WSW 22:26:11 57° SSE 22:30:03 19° E
Resurs 01 Rocket 4.4 22:26:35 10° W 22:27:27 10° W 22:28:19 10° WNW
Cosmos 2333 Rocket 2.9 22:22:49 10° SW 22:28:22 55° WNW 22:33:59 10° NNE
Cosmos 1315 Rocket 2.8 22:25:11 10° NNW 22:29:17 78° W 22:29:55 61° SSW
Cosmos 2184 Rocket 3.9 22:27:10 37° S 22:29:47 73° E 22:36:03 10° N
Thor Agena Rocket 4.3 22:28:39 10° NNE 22:33:15 33° E 22:33:18 33° E
Meteor 2-2 Rocket 4.3 22:28:30 10° N 22:34:17 65° E 22:35:55 45° SE
ERS-1 Rocket 3.8 22:36:52 29° SSW 22:38:51 43° W 22:43:39 10° NNW
Cosmos 2221 2.4 22:34:33 10° N 22:38:57 76° E 22:39:20 69° SE
BREEZE-M DEB (TANK) 4.4 22:35:11 10° WNW 22:38:58 21° N 22:41:12 10° NE
Cosmos 1892 3.0 22:41:59 56° NE 22:41:59 56° NE 22:45:15 10° NNE
ATLAS 2AS CENTAUR R/B 3.8 22:35:17 10° NNW 22:42:18 39° NE 22:46:25 21° E
Cosmos 2112 Rocket 4.1 22:48:24 54° SE 22:48:56 57° ESE 22:54:10 10° NNE
Cosmos 158 Rocket 3.7 22:52:56 65° ESE 22:53:09 66° ESE 22:58:01 10° NNE
USA 215 4.1 22:47:08 10° NE 22:53:25 50° NNW 22:59:40 10° WSW
Cosmos 2278 Rocket 2.2 22:48:01 10° NNW 22:53:42 70° ENE 22:54:59 52° SE
SPOT 5 4.1 22:53:10 27° SW 22:54:51 34° W 22:59:18 10° NNW
Cosmos 1844 Rocket 4.5 22:53:44 10° NW 22:57:46 21° W 22:59:56 17° SW
Spot 4 4.3 22:59:07 45° E 22:59:33 46° ENE 23:04:08 10° N
SL-16 R/B 3.2 23:00:46 30° E 23:00:46 30° E 23:05:11 10° NE
Cosmos 2058 2.9 23:01:10 74° W 23:01:11 74° W 23:05:21 10° N
Cosmos 1408 3.5 23:03:24 42° NNE 23:03:24 42° NNE 23:05:54 10° NNE
Gblst 52 Del rocket 4.5 22:59:14 10° NW 23:05:06 75° NE 23:07:27 41° ESE
Cosmos 2056 Rocket 4.4 23:01:50 10° N 23:06:56 40° ENE 23:07:58 36° E
Cosmos 2154 Rocket 3.9 23:07:50 49° SSW 23:09:39 85° W 23:15:54 10° N
Nadezhda 3 Rocket 3.9 23:05:59 10° N 23:12:22 86° E 23:13:54 55° SSE
Cosmos 2341 Rocket 4.1 23:11:47 50° SE 23:12:48 56° E 23:18:51 10° NNE
Cosmos 1076 Rocket 3.7 23:12:54 62° W 23:13:00 62° W 23:17:15 10° N
In-Cosmos 22 Rocket 4.5 23:11:39 42° SW 23:13:11 57° WNW 23:18:26 10° N
Cosmos 1680 Rocket 3.7 23:15:58 49° SW 23:17:17 68° WNW 23:22:37 10° NNE
TSX-5 4.3 23:16:54 10° NNW 23:19:55 58° NW 23:19:55 58° NW
Cosmos 2151 3.4 23:23:52 58° NE 23:23:52 58° NE 23:27:27 10° NNE
USA 267 3.2 23:21:24 43° ESE 23:23:47 82° NE 23:30:22 10° NW
SL-8 Rocket 4.1 23:30:59 54° ESE 23:31:44 58° E 23:37:46 10° NNE
Cosmos 1825 3.1 23:32:56 47° N 23:32:56 47° N 23:35:44 10° N
BREEZE-M DEB (TANK) 3.8 23:30:02 10° WNW 23:32:44 28° WNW 23:32:44 28° WNW
ALOS 2 3.1 23:35:27 50° NE 23:35:27 50° NE 23:39:21 10° N
ATLAS CENTAUR R/B 3.4 23:33:19 10° WNW 23:34:36 16° W 23:34:36 16° W
Cosmos 1151 Rocket 4.0 23:36:32 10° N 23:40:03 39° NE 23:40:03 39° NE
Cosmos 44 3.6 23:43:37 53° NNE 23:43:37 53° NNE 23:47:01 10° NNE
Cosmos 2369 Rocket 4.3 23:41:55 10° N 23:45:48 19° NE 23:48:49 13° E
GP-B 3.5 23:45:04 10° N 23:48:50 59° NE 23:48:50 59° NE
Cosmos 371 Rocket 4.1 23:45:39 10° N 23:50:15 41° ENE 23:50:25 41° ENE
Terra 4.2 23:49:27 12° W 23:50:16 13° W 23:52:18 10° WNW
